Flag for Germany Weather past 2 weeks in Siegburg, North Rhine-Westphalia, Germany

Now
40 °F

Overcast.


Feels Like: 35 °F
Forecast: 37 / 46 °F
Wind: 7 mph from West

Location: Bonn-Hangelar

Current Time: Mar 2, 2015 at 6:50:19 AM

Latest Report: Mar 2, 2015 at 6:00 AM


Visibility: 38 mi

Pressure: 29.61 "Hg

Humidity: 85%

Dew point: 36 °F

Location of SiegburgLocation

Historic Weather in Siegburg — Graph

°F

Siegburg temperature yesterday

Maximum temperature yesterday: 49 °F (at 1:00 PM)
Minimum temperature yesterday: 40 °F (at 4:00 AM)
Average temperature yesterday: 45 °F

Past Weeks' High & Low Weather Summary

 TemperatureHumidityPressure
High49 °F (Mar 1, 1:00 PM)100% (Feb 17, 4:00 AM)30.78 "Hg (Feb 17, 4:00 AM)
Low29 °F (Feb 17, 2:00 AM)54% (Feb 28, 5:00 PM)29.38 "Hg (Feb 21, 3:00 AM)
Average38 °F86%29.97 "Hg
* Reported Feb 15 5:00 AM — Mar 2 5:00 AM, Siegburg, Weather by CustomWeather, © 2015

Note: Actual official high and low records may vary slightly from our data, if they occured in-between our weather recording intervals... More about our weather records

Advertising

Siegburg weather history for previous 24 hours

 ConditionsComfort  
Time TempWeatherWind HumidityBarometerVisibility
5:00 AM
Mon, Mar 2
40 °FOvercast.8 mph81%29.59 "Hg28 mi
4:00 AM41 °FOvercast.9 mph82%29.58 "Hg28 mi
3:00 AM42 °FOvercast.12 mph84%29.57 "Hg28 mi
2:00 AM42 °FOvercast.13 mph82%29.50 "Hg43 mi
1:00 AM45 °FLight rain. Low clouds.12 mph88%29.47 "Hg3 mi
12:00 AM46 °FLight rain. Overcast.12 mph78%29.50 "Hg14 mi
11:00 PM
Sun, Mar 1
46 °FPassing clouds.13 mph76%29.54 "Hg17 mi
10:00 PM47 °FOvercast.10 mph72%29.58 "Hg19 mi
9:00 PM46 °FOvercast.8 mph76%29.61 "Hg31 mi
8:00 PM46 °FOvercast.6 mph80%29.63 "Hg31 mi
7:00 PM45 °FOvercast.6 mph84%29.65 "Hg31 mi
6:00 PM46 °FOvercast.8 mph79%29.65 "Hg31 mi
5:00 PM47 °FPartly sunny.9 mph73%29.66 "Hg31 mi
4:00 PM48 °FOvercast.10 mph71%29.65 "Hg22 mi
3:00 PM45 °FSprinkles. Overcast.10 mph90%29.66 "Hg16 mi
2:00 PM48 °FSprinkles. Overcast.12 mph68%29.65 "Hg28 mi
1:00 PM49 °FPartly sunny.13 mph63%29.66 "Hg25 mi
12:00 PM47 °FPartly sunny.13 mph68%29.66 "Hg25 mi
11:00 AM48 °FPartly sunny.14 mph69%29.65 "Hg22 mi
10:00 AM47 °FOvercast.10 mph83%29.64 "Hg28 mi
9:00 AM45 °FOvercast.12 mph90%29.63 "Hg28 mi
8:00 AM44 °FLow clouds.13 mph91%29.60 "Hg25 mi
7:00 AM43 °FRain. Low clouds.13 mph93%29.59 "Hg6 mi
6:00 AM43 °FOvercast.14 mph88%29.60 "Hg31 mi
Weather by CustomWeather, © 2015

See weather overviewHow to use our weather pages